ORBCOMM FM37 [-]

Last updated on Thu Dec 28 2023 00:02:55 GMT+0000 (Greenwich Mean Time)

1 33064U 08031E 23361.28817201 .00002774 00000+0 43169-3 0 9997 2 33064 48.4419 12.1715 0006182 241.0613 215.4221 14.75628846834507
UTC large
Height (km)
Speed (km/s)
/
Latitude / Longitude
Inclination (degrees)
Orbital Period (minutes)
Azimuth
Elevation
Range (km)
Doppler Factor

Next 0 passes for location: London (51.5072 / 0.1276)

Sorry there are no passes over London.